Retour au catalogue

BREEZE-M DEB

ActifHEO
NORAD 38601·DEBRIS·🇷🇺 Russia

Lancé Mar 14, 2008 depuis Baikonur Cosmodrome

Loading…

Prochains Passages (prochaines 24 heures)

TLE

FraisSource: Space-Track

Époque: Sep 14, 2026, 18:44 UTC

1 38601U 08011AY  26257.78077356  .00038559  00000-0  29242-2 0  9994
2 38601  48.0866 324.8788 5161763 243.3845  55.5280  5.40793566242008

Suivez BREEZE-M DEB en temps réel avec AllMySat

Download on the App Store